SOYUZ-MS 09 (43493 NORAD) Tracking and Keplerian Element Data

This shows tracking and keplerian element data for the satellite.

Feedback or suggestion? Click here.




ElementValue
Catalog43493
NameSOYUZ-MS 09
Epoch Orbit2506
Epoch Day318.58614821
Epoch Year2018
RAAN349.2354
Inclination51.6425
Eccentricity0.0005181
Argument of Perigee47.1009
Mean Anonmoly89.6825
Mean Motion15.53966975
Decay Rate2.212E-05
L11 43493U 18051A 18318.58614821 .00002212 00000-0 40895-4 0 9991
L22 43493 51.6425 349.2354 0005181 47.1009 89.6825 15.53966975 25061

Live tracking and technical data element details for SOYUZ-MS 09 (NORAD 43493). SOYUZ-MS 09 can be tracked NOW for your location showing map with azimuth and elevation plus other details from your city location.

Track the satellite on the map from your city or location and see movement details for azimuth, elevation, latitude, longitude, range, height, and movement on the map or in text.







IsCatalogInMostPopularTable: catalog: 43493, numindb: 57
Update: records affected: 1



GetName: 43493 SOYUZ-MS 09

Hit Count: updated at: Sat, 17 Nov 2018 02:17:15 GMT